Showing default

FLOCK 4Q 14, 58311

Orbit data source: Space-Track

FLOCK 4Q 14, 58311 is a payload satellite owned by Planet (US) in SSO that was launched on Sat, 11 Nov 2023 UTC via an FALCON 9 launch vehicle from the Air Force Western Test Range (AFWTR). Payload-class satellites include a variety of spacecraft equipped with specific instruments for various scientific and technological missions. These include communications satellites like Starlink; space stations such as the ISS; scientific satellites like the Hubble; Earth observation satellites from companies like Planet Labs, Umbra, and HawkEye 360; GPS; miniature CubeSats for education and research; and military/defense satellites.

Not visible in the next 10 days
Identifier
58311, 2023-174BH
Orbit
SSO
Country
Flag of USUS
Related business
Manufacturer
Planet
Mission
Non-operational Commercial Imaging
Bus & Motor
CUBESAT 3U, Unknown motor
Mass
5.7 kg wet, 5.7 kg dry
Launch date (UTC)
2023-11-11 (2 years ago)
Launch vehicle
FALCON 9
Launch site
Air Force Western Test Range (AFWTR)
Object type
Payload
Rocket body
Debris
Shape & HBR
Box + 2 Pan, 1.0 m
Radar Cross Section
0.072 m², Medium (>0.1 m² and < 1m²)

Expand to show TLE details & history
Last TLE update: 1 day ago

TLE from 1 day ago
0 FLOCK 4Q 14
1 58311U 23174BH  25348.68668213  .00884790  37469-3  17731-2 0  9996
2 58311  97.3793  74.4884 0005760 313.3460  46.7338 15.99803113117494
Epoch: 2025-12-14T16:28Z
TLE epoch observation values (Epoch: 2025-12-14T16:28:49.336Z)
Latitude
0.00005°
Longitude
103.68679°
Altitude
275.537 km
Speed
7.743 km/s
True Right ascension
04h 57m 57s
True Declination
0° 00' 00"
Sunlit
Object was in full shadow at epoch
Visualization orbit readout
Latitude
Unknown
Longitude
Unknown
Altitude
Unknown
Speed
Unknown
Apparent Right ascension
Unknown
Apparent Declination
Unknown
Sunlit
N/A
Visualization observer readout
Local Sidereal Time
19:03:32
Azimuth
Unknown
Elevation
Unknown
Doppler factor
Unknown
Orbital elements
Apogee altitude
275.654 km
Perigee altitude
267.993 km
Semi-major axis
6,649.961 km
Eccentricity
0.00058
Inclination
97.3793°
RAAN
74.4884°
Arg. of periapsis
313.346°
True anomaly
46.78189°
Mean anomaly
46.7338°
Eccentric anomaly
46.75784°
Mean motion
4.00235 °/min
Orbital period
89.95 mins
BSTAR
0.0017731
Loading maneuver chart data...
Computing Atmospheric mass density...
Loading historical data...
Loading historical data...
Loading historical data...
Loading historical data...
Loading historical data...
Loading historical data...
Loading historical data...

Documentation

Showing up to 5 results
|